EN

Hourly Weather Lucin

Today, 3 December, Thursday

Time Temperature Precipitation Wind Pressure Humidity
00:00 -5°C° 0 mm 5 mps 763 mmHg 69%
01:00 -5°C° 0 mm 5 mps 762 mmHg 73%
02:00 -5°C° 0 mm 5 mps 762 mmHg 73%
03:00 -5°C° 0 mm 6 mps 761 mmHg 74%
04:00 -5°C° 0 mm 6 mps 761 mmHg 75%
05:00 -5°C° 0 mm 6 mps 760 mmHg 76%
06:00 -5°C° 0 mm 6 mps 760 mmHg 76%
07:00 -5°C° 0 mm 6 mps 759 mmHg 76%
08:00 -6°C° 0 mm 7 mps 759 mmHg 74%
09:00 -6°C° 0 mm 7 mps 759 mmHg 72%
10:00 -4°C° 0 mm 7 mps 759 mmHg 69%
11:00 -4°C° 0 mm 7 mps 758 mmHg 69%
12:00 -3°C° 0 mm 7 mps 758 mmHg 68%
13:00 -3°C° 0 mm 6 mps 757 mmHg 68%
14:00 -3°C° 0.3 mm 7 mps 756 mmHg 70%
15:00 -3°C° 0.3 mm 7 mps 756 mmHg 72%
16:00 -3°C° 0.3 mm 7 mps 755 mmHg 75%
17:00 -3°C° 0.1 mm 7 mps 755 mmHg 76%
18:00 -3°C° 0.1 mm 7 mps 754 mmHg 78%
19:00 -3°C° 0.1 mm 7 mps 754 mmHg 79%
20:00 -3°C° 0 mm 7 mps 754 mmHg 81%
21:00 -3°C° 0 mm 7 mps 753 mmHg 82%
22:00 -3°C° 0 mm 6 mps 753 mmHg 83%
23:00 -3°C° 0 mm 6 mps 753 mmHg 80%

Tomorrow, 4 December, Friday

Time Temperature Precipitation Wind Pressure Humidity
00:00 -3°C° 0 mm 6 mps 753 mmHg 78%
01:00 -3°C° 0 mm 6 mps 753 mmHg 75%
02:00 -3°C° 0 mm 6 mps 752 mmHg 76%
03:00 -3°C° 0 mm 6 mps 751 mmHg 76%
04:00 -2°C° 0 mm 6 mps 751 mmHg 77%
05:00 -2°C° 0.3 mm 6 mps 751 mmHg 79%
06:00 -2°C° 0.3 mm 7 mps 751 mmHg 82%
07:00 -1°C° 0.3 mm 7 mps 751 mmHg 84%
08:00 -1°C° 0.2 mm 7 mps 751 mmHg 84%
09:00 -1°C° 0.2 mm 7 mps 750 mmHg 84%
10:00 -1°C° 0.2 mm 7 mps 750 mmHg 83%
11:00 0°C° 0 mm 7 mps 750 mmHg 81%
12:00 0°C° 0 mm 7 mps 750 mmHg 78%
13:00 +2°C° 0 mm 7 mps 750 mmHg 76%
14:00 +2°C° 0 mm 7 mps 750 mmHg 76%
15:00 +2°C° 0 mm 7 mps 749 mmHg 76%
16:00 +2°C° 0 mm 7 mps 749 mmHg 76%
17:00 +1°C° 0 mm 8 mps 749 mmHg 76%
18:00 +1°C° 0 mm 8 mps 749 mmHg 76%
19:00 +1°C° 0 mm 8 mps 749 mmHg 76%
20:00 +1°C° 0 mm 8 mps 749 mmHg 78%
21:00 0°C° 0 mm 7 mps 749 mmHg 79%
22:00 0°C° 0 mm 7 mps 749 mmHg 80%
23:00 0°C° 0 mm 7 mps 750 mmHg 81%

Day after tomorrow, 5 December, Saturday

Time Temperature Precipitation Wind Pressure Humidity
00:00 0°C° 0 mm 7 mps 750 mmHg 82%
01:00 0°C° 0 mm 7 mps 750 mmHg 83%
02:00 0°C° 0 mm 7 mps 750 mmHg 83%
03:00 0°C° 0 mm 7 mps 750 mmHg 83%
04:00 +2°C° 0 mm 7 mps 750 mmHg 84%
05:00 +1°C° 0 mm 8 mps 750 mmHg 83%
06:00 +1°C° 0 mm 8 mps 750 mmHg 83%
07:00 +2°C° 0 mm 8 mps 751 mmHg 83%
08:00 +2°C° 0 mm 8 mps 751 mmHg 81%
09:00 +4°C° 0 mm 8 mps 751 mmHg 79%
10:00 +3°C° 0 mm 9 mps 751 mmHg 77%
11:00 +5°C° 0 mm 8 mps 752 mmHg 76%
12:00 +5°C° 0 mm 8 mps 752 mmHg 75%
13:00 +6°C° 0 mm 8 mps 752 mmHg 73%
14:00 +6°C° 0 mm 8 mps 752 mmHg 74%
15:00 +6°C° 0 mm 7 mps 752 mmHg 75%
16:00 +6°C° 0 mm 7 mps 752 mmHg 75%
17:00 +6°C° 0 mm 7 mps 753 mmHg 75%
18:00 +6°C° 0 mm 7 mps 753 mmHg 75%
19:00 +6°C° 0 mm 7 mps 753 mmHg 74%
20:00 +6°C° 0 mm 7 mps 754 mmHg 74%
21:00 +6°C° 0 mm 7 mps 754 mmHg 73%
22:00 +7°C° 0 mm 8 mps 754 mmHg 72%
23:00 +6°C° 0 mm 8 mps 754 mmHg 74%

6 December, Sunday

Time Temperature Precipitation Wind Pressure Humidity
00:00 +6°C° 0 mm 8 mps 754 mmHg 75%
01:00 +6°C° 0 mm 9 mps 755 mmHg 77%
02:00 +6°C° 0 mm 8 mps 755 mmHg 77%
03:00 +6°C° 0 mm 8 mps 755 mmHg 77%
04:00 +6°C° 0 mm 8 mps 755 mmHg 78%
05:00 +6°C° 0 mm 8 mps 755 mmHg 79%
06:00 +5°C° 0 mm 8 mps 755 mmHg 80%
07:00 +5°C° 0 mm 8 mps 755 mmHg 81%
08:00 +6°C° 0 mm 8 mps 756 mmHg 80%
09:00 +6°C° 0 mm 8 mps 756 mmHg 79%
10:00 +6°C° 0 mm 8 mps 757 mmHg 78%
11:00 +6°C° 0 mm 8 mps 757 mmHg 77%
12:00 +7°C° 0 mm 8 mps 757 mmHg 76%
13:00 +7°C° 0 mm 8 mps 757 mmHg 75%
14:00 +7°C° 0 mm 8 mps 757 mmHg 76%
15:00 +6°C° 0 mm 8 mps 757 mmHg 77%
16:00 +6°C° 0 mm 8 mps 758 mmHg 79%
17:00 +6°C° 0 mm 9 mps 758 mmHg 80%
18:00 +5°C° 0 mm 9 mps 758 mmHg 80%
19:00 +5°C° 0 mm 9 mps 758 mmHg 81%
20:00 +3°C° 0 mm 9 mps 758 mmHg 80%
21:00 +3°C° 0 mm 9 mps 759 mmHg 80%
22:00 +2°C° 0 mm 9 mps 759 mmHg 79%
23:00 +2°C° 0 mm 9 mps 758 mmHg 78%

7 December, Monday

Time Temperature Precipitation Wind Pressure Humidity
00:00 +1°C° 0 mm 9 mps 758 mmHg 76%
01:00 +1°C° 0 mm 10 mps 758 mmHg 75%
02:00 +1°C° 0 mm 10 mps 758 mmHg 73%
03:00 0°C° 0 mm 10 mps 758 mmHg 71%
04:00 0°C° 0 mm 10 mps 758 mmHg 69%
05:00 0°C° 0 mm 10 mps 758 mmHg 68%
06:00 -2°C° 0 mm 10 mps 758 mmHg 67%
07:00 -2°C° 0 mm 10 mps 758 mmHg 66%
08:00 -2°C° 0 mm 10 mps 758 mmHg 66%
09:00 -2°C° 0 mm 10 mps 758 mmHg 65%
10:00 -2°C° 0 mm 10 mps 758 mmHg 64%
11:00 0°C° 0 mm 10 mps 758 mmHg 63%
12:00 0°C° 0 mm 10 mps 758 mmHg 63%
13:00 +1°C° 0 mm 10 mps 758 mmHg 63%
14:00 0°C° 0 mm 10 mps 758 mmHg 64%
15:00 0°C° 0 mm 10 mps 758 mmHg 65%
16:00 0°C° 0 mm 10 mps 758 mmHg 67%
17:00 0°C° 0 mm 10 mps 758 mmHg 69%
18:00 0°C° 0 mm 9 mps 759 mmHg 71%
19:00 0°C° 0 mm 9 mps 759 mmHg 73%
20:00 0°C° 0 mm 9 mps 759 mmHg 74%
21:00 0°C° 0 mm 8 mps 760 mmHg 76%
22:00 0°C° 0 mm 8 mps 760 mmHg 78%
23:00 0°C° 0 mm 8 mps 760 mmHg 79%

8 December, Tuesday

Time Temperature Precipitation Wind Pressure Humidity
00:00 -1°C° 0 mm 7 mps 760 mmHg 80%
01:00 -1°C° 0 mm 7 mps 761 mmHg 81%
02:00 -1°C° 0 mm 7 mps 761 mmHg 81%
03:00 -2°C° 0 mm 7 mps 761 mmHg 81%
04:00 -2°C° 0 mm 7 mps 761 mmHg 81%
05:00 -2°C° 0 mm 7 mps 761 mmHg 79%
06:00 -2°C° 0 mm 6 mps 761 mmHg 78%
07:00 -2°C° 0 mm 6 mps 761 mmHg 76%
08:00 -2°C° 0 mm 6 mps 762 mmHg 74%
09:00 -2°C° 0 mm 6 mps 762 mmHg 71%
10:00 -2°C° 0 mm 6 mps 762 mmHg 68%
11:00 -2°C° 0 mm 6 mps 762 mmHg 68%
12:00 -2°C° 0 mm 6 mps 762 mmHg 67%
13:00 -2°C° 0 mm 6 mps 762 mmHg 67%
14:00 -2°C° 0 mm 6 mps 762 mmHg 69%
15:00 -2°C° 0 mm 6 mps 762 mmHg 72%
16:00 -2°C° 0 mm 6 mps 762 mmHg 75%
17:00 -2°C° 0 mm 6 mps 762 mmHg 77%
18:00 -2°C° 0 mm 6 mps 762 mmHg 79%
19:00 -2°C° 0 mm 6 mps 761 mmHg 81%
20:00 -2°C° 0 mm 6 mps 761 mmHg 83%
21:00 -3°C° 0 mm 6 mps 761 mmHg 85%
22:00 -3°C° 0 mm 6 mps 762 mmHg 88%
23:00 -3°C° 0.1 mm 6 mps 761 mmHg 88%
Show more